Tracking 35280 objects as of 7-Sep-2026
HD Live streaming from Space Station
objects crossing your sky now

STARLINK-30480

Track STARLINK-30480 now!
10-day predictions
STARLINK-30480 is classified as:


NORAD ID: 58069
Int'l Code: 2023-158U
Launch date: October 13, 2023
Source: United States (US)
Launch site: AIR FORCE EASTERN TEST RANGE (AFETR)
Your satellite tracking list
Your tracking list is empty




NASA's NSSDC Master Catalog

Two Line Element Set (TLE):
1 58069U 23158U   26250.21863238  .00001804  00000-0  75061-4 0  9991
2 58069  43.0015 299.6531 0001420 265.4969  94.5720 15.27577209163008
Source of the keplerian elements: AFSPC